Time,TemperatureF,DewpointF,PressureIn,WindDirection,WindDirectionDegrees,WindSpeedMPH,WindSpeedGustMPH,Humidity,HourlyPrecipIn,Conditions,Clouds,dailyrainin,SolarRadiationWatts/m^2,SoftwareType,DateUTC
2013-07-12 00:11:00,63.6,61.0,29.99,NNW,330,0.0,-999.0,91,-99.99,,,0.00,0,weatherlink.com 1.10,2013-07-12 04:11:00,
2013-07-12 00:26:00,63.3,61.0,29.99,NNW,330,0.0,-999.0,91,-99.99,,,0.00,0,weatherlink.com 1.10,2013-07-12 04:26:00,
2013-07-12 00:41:00,63.1,61.0,30.00,NNW,330,0.0,-999.0,92,-99.99,,,0.00,0,weatherlink.com 1.10,2013-07-12 04:41:00,
2013-07-12 00:56:00,62.9,61.0,30.00,NNW,330,0.0,-999.0,92,-99.99,,,0.00,0,weatherlink.com 1.10,2013-07-12 04:56:00,
2013-07-12 01:11:00,62.7,60.0,30.00,NNW,330,0.0,-999.0,92,-99.99,,,0.00,0,weatherlink.com 1.10,2013-07-12 05:11:00,
2013-07-12 01:26:00,62.5,60.0,30.00,NNW,330,0.0,-999.0,92,-99.99,,,0.00,0,weatherlink.com 1.10,2013-07-12 05:26:00,
2013-07-12 01:41:00,62.4,60.0,29.99,NNW,330,0.0,-999.0,93,-99.99,,,0.00,0,weatherlink.com 1.10,2013-07-12 05:41:00,
2013-07-12 01:56:00,62.2,60.0,30.00,NNW,330,0.0,-999.0,93,-99.99,,,0.00,0,weatherlink.com 1.10,2013-07-12 05:56:00,
2013-07-12 02:11:00,62.0,60.0,30.00,NNW,330,0.0,-999.0,93,-99.99,,,0.00,0,weatherlink.com 1.10,2013-07-12 06:11:00,
2013-07-12 02:26:00,61.9,60.0,30.00,NNW,330,0.0,-999.0,93,-99.99,,,0.00,0,weatherlink.com 1.10,2013-07-12 06:26:00,
2013-07-12 02:41:00,61.8,60.0,30.01,NNW,330,0.0,-999.0,93,-99.99,,,0.00,0,weatherlink.com 1.10,2013-07-12 06:41:00,
2013-07-12 02:56:00,61.7,60.0,30.02,NNW,330,0.0,-999.0,93,-99.99,,,0.00,0,weatherlink.com 1.10,2013-07-12 06:56:00,
2013-07-12 03:11:00,61.6,60.0,30.02,NNW,330,0.0,-999.0,93,-99.99,,,0.00,0,weatherlink.com 1.10,2013-07-12 07:11:00,
2013-07-12 03:26:00,61.7,60.0,30.02,NNW,330,0.0,-999.0,94,-99.99,,,0.00,0,weatherlink.com 1.10,2013-07-12 07:26:00,
2013-07-12 03:41:00,61.7,60.0,30.02,NNW,330,0.0,-999.0,94,-99.99,,,0.00,0,weatherlink.com 1.10,2013-07-12 07:41:00,
2013-07-12 03:56:00,61.7,60.0,30.03,NNW,330,0.0,-999.0,94,-99.99,,,0.00,0,weatherlink.com 1.10,2013-07-12 07:56:00,
2013-07-12 04:11:00,61.7,60.0,30.03,NNW,330,1.0,-999.0,94,-99.99,,,0.00,0,weatherlink.com 1.10,2013-07-12 08:11:00,
2013-07-12 04:26:00,61.6,60.0,30.04,NNW,330,0.0,-999.0,94,-99.99,,,0.00,0,weatherlink.com 1.10,2013-07-12 08:26:00,
2013-07-12 04:41:00,61.5,60.0,30.04,NNW,330,0.0,-999.0,94,-99.99,,,0.00,0,weatherlink.com 1.10,2013-07-12 08:41:00,
2013-07-12 04:56:00,61.5,60.0,30.05,NNW,330,0.0,-999.0,94,-99.99,,,0.00,0,weatherlink.com 1.10,2013-07-12 08:56:00,
2013-07-12 05:11:00,61.4,60.0,30.05,NNW,330,0.0,-999.0,94,-99.99,,,0.00,0,weatherlink.com 1.10,2013-07-12 09:11:00,
2013-07-12 05:26:00,61.3,60.0,30.05,NNW,330,0.0,-999.0,94,-99.99,,,0.00,0,weatherlink.com 1.10,2013-07-12 09:26:00,
2013-07-12 05:41:00,61.2,60.0,30.05,NNW,330,0.0,-999.0,94,-99.99,,,0.00,0,weatherlink.com 1.10,2013-07-12 09:41:00,
2013-07-12 05:56:00,61.2,60.0,30.06,NNW,330,0.0,-999.0,94,-99.99,,,0.00,7,weatherlink.com 1.10,2013-07-12 09:56:00,
2013-07-12 06:11:00,61.4,60.0,30.07,NNW,330,1.0,-999.0,95,-99.99,,,0.00,21,weatherlink.com 1.10,2013-07-12 10:11:00,
2013-07-12 06:26:00,61.5,60.0,30.07,NNW,330,0.0,-999.0,95,-99.99,,,0.00,33,weatherlink.com 1.10,2013-07-12 10:26:00,
2013-07-12 06:41:00,61.7,60.0,30.07,NNW,330,0.0,-999.0,95,-99.99,,,0.00,44,weatherlink.com 1.10,2013-07-12 10:41:00,
2013-07-12 06:56:00,61.8,60.0,30.08,NNW,330,0.0,-999.0,95,-99.99,,,0.00,67,weatherlink.com 1.10,2013-07-12 10:56:00,
2013-07-12 07:11:00,62.1,61.0,30.08,NNW,330,0.0,-999.0,95,-99.99,,,0.00,90,weatherlink.com 1.10,2013-07-12 11:11:00,
2013-07-12 07:26:00,62.3,61.0,30.09,NNW,330,0.0,-999.0,95,-99.99,,,0.00,104,weatherlink.com 1.10,2013-07-12 11:26:00,
2013-07-12 07:41:00,62.6,61.0,30.09,NNW,330,4.0,-999.0,95,-99.99,,,0.00,121,weatherlink.com 1.10,2013-07-12 11:41:00,
2013-07-12 07:56:00,63.0,62.0,30.09,NNW,330,0.0,-999.0,95,-99.99,,,0.00,142,weatherlink.com 1.10,2013-07-12 11:56:00,
2013-07-12 08:12:00,63.8,62.0,30.10,NNW,330,0.0,-999.0,95,-99.99,,,0.00,171,weatherlink.com 1.10,2013-07-12 12:12:00,
2013-07-12 08:27:00,64.5,63.0,30.10,NNW,330,5.0,-999.0,95,-99.99,,,0.00,221,weatherlink.com 1.10,2013-07-12 12:27:00,
2013-07-12 08:42:00,65.2,64.0,30.10,NNW,327,0.0,-999.0,95,-99.99,,,0.00,258,weatherlink.com 1.10,2013-07-12 12:42:00,
2013-07-12 08:57:00,65.9,65.0,30.11,NNW,329,0.0,-999.0,95,-99.99,,,0.00,308,weatherlink.com 1.10,2013-07-12 12:57:00,
2013-07-12 09:12:00,66.3,65.0,30.11,NNW,329,4.0,-999.0,95,-99.99,,,0.00,311,weatherlink.com 1.10,2013-07-12 13:12:00,
2013-07-12 09:27:00,66.9,65.0,30.11,NW,324,0.0,-999.0,94,-99.99,,,0.00,388,weatherlink.com 1.10,2013-07-12 13:27:00,
2013-07-12 09:42:00,68.0,66.0,30.11,NW,325,0.0,-999.0,92,-99.99,,,0.00,445,weatherlink.com 1.10,2013-07-12 13:42:00,
2013-07-12 09:57:00,69.0,64.0,30.11,NE,38,0.0,-999.0,85,-99.99,,,0.00,439,weatherlink.com 1.10,2013-07-12 13:57:00,
2013-07-12 10:12:00,70.3,64.0,30.11,ENE,65,6.0,-999.0,80,-99.99,,,0.00,490,weatherlink.com 1.10,2013-07-12 14:12:00,
2013-07-12 10:27:00,71.7,65.0,30.11,NE,44,0.0,-999.0,78,-99.99,,,0.00,443,weatherlink.com 1.10,2013-07-12 14:27:00,
2013-07-12 10:42:00,72.1,65.0,30.11,NE,38,4.0,-999.0,77,-99.99,,,0.00,454,weatherlink.com 1.10,2013-07-12 14:42:00,
2013-07-12 10:57:00,72.9,65.0,30.11,NNE,26,3.0,-999.0,75,-99.99,,,0.00,515,weatherlink.com 1.10,2013-07-12 14:57:00,
2013-07-12 11:12:00,73.9,64.0,30.10,NNE,30,3.0,-999.0,72,-99.99,,,0.00,566,weatherlink.com 1.10,2013-07-12 15:12:00,
2013-07-12 11:27:00,73.7,63.0,30.11,NNE,12,1.0,-999.0,69,-99.99,,,0.00,538,weatherlink.com 1.10,2013-07-12 15:27:00,
2013-07-12 11:42:00,74.3,64.0,30.11,North,355,3.0,-999.0,70,-99.99,,,0.00,610,weatherlink.com 1.10,2013-07-12 15:42:00,
2013-07-12 11:57:00,74.8,64.0,30.11,NE,39,4.0,-999.0,68,-99.99,,,0.00,619,weatherlink.com 1.10,2013-07-12 15:57:00,
2013-07-12 12:12:00,75.5,64.0,30.11,NE,36,2.0,-999.0,67,-99.99,,,0.00,628,weatherlink.com 1.10,2013-07-12 16:12:00,
2013-07-12 12:27:00,75.9,63.0,30.11,NNE,22,5.0,-999.0,65,-99.99,,,0.00,612,weatherlink.com 1.10,2013-07-12 16:27:00,
2013-07-12 12:42:00,76.9,64.0,30.11,NNE,16,6.0,-999.0,64,-99.99,,,0.00,663,weatherlink.com 1.10,2013-07-12 16:42:00,
2013-07-12 12:57:00,77.1,63.0,30.11,NNE,17,6.0,-999.0,63,-99.99,,,0.00,657,weatherlink.com 1.10,2013-07-12 16:57:00,
2013-07-12 13:12:00,76.1,64.0,30.11,ENE,63,7.0,-999.0,66,-99.99,,,0.00,640,weatherlink.com 1.10,2013-07-12 17:12:00,
2013-07-12 13:28:00,76.4,64.0,30.11,NE,34,2.0,-999.0,66,-99.99,,,0.00,659,weatherlink.com 1.10,2013-07-12 17:28:00,
2013-07-12 13:43:00,77.2,64.0,30.11,NNW,334,12.0,-999.0,63,-99.99,,,0.00,664,weatherlink.com 1.10,2013-07-12 17:43:00,
2013-07-12 13:58:00,76.2,62.0,30.12,North,355,9.0,-999.0,61,-99.99,,,0.00,594,weatherlink.com 1.10,2013-07-12 17:58:00,
2013-07-12 14:13:00,75.6,63.0,30.12,NNW,333,6.0,-999.0,64,-99.99,,,0.00,564,weatherlink.com 1.10,2013-07-12 18:13:00,
2013-07-12 14:28:00,76.2,63.0,30.12,NNW,340,8.0,-999.0,64,-99.99,,,0.00,515,weatherlink.com 1.10,2013-07-12 18:28:00,
2013-07-12 14:43:00,75.9,62.0,30.12,NW,321,3.0,-999.0,63,-99.99,,,0.00,473,weatherlink.com 1.10,2013-07-12 18:43:00,
2013-07-12 14:58:00,75.9,63.0,30.12,NNW,346,6.0,-999.0,64,-99.99,,,0.00,494,weatherlink.com 1.10,2013-07-12 18:58:00,
2013-07-12 15:13:00,75.9,63.0,30.11,WNW,282,5.0,-999.0,64,-99.99,,,0.00,494,weatherlink.com 1.10,2013-07-12 19:13:00,
2013-07-12 15:28:00,75.3,62.0,30.11,NW,309,9.0,-999.0,63,-99.99,,,0.00,508,weatherlink.com 1.10,2013-07-12 19:28:00,
2013-07-12 15:43:00,74.9,61.0,30.11,North,5,7.0,-999.0,62,-99.99,,,0.00,466,weatherlink.com 1.10,2013-07-12 19:43:00,
2013-07-12 15:58:00,75.0,61.0,30.11,NNW,345,8.0,-999.0,62,-99.99,,,0.00,427,weatherlink.com 1.10,2013-07-12 19:58:00,
2013-07-12 16:13:00,74.6,62.0,30.11,NNW,344,4.0,-999.0,64,-99.99,,,0.00,410,weatherlink.com 1.10,2013-07-12 20:13:00,
2013-07-12 16:28:00,75.1,62.0,30.10,NNW,340,9.0,-999.0,65,-99.99,,,0.00,404,weatherlink.com 1.10,2013-07-12 20:28:00,
2013-07-12 16:43:00,74.1,62.0,30.11,North,360,5.0,-999.0,65,-99.99,,,0.00,367,weatherlink.com 1.10,2013-07-12 20:43:00,
2013-07-12 16:58:00,73.4,62.0,30.11,NNW,338,4.0,-999.0,68,-99.99,,,0.00,308,weatherlink.com 1.10,2013-07-12 20:58:00,
2013-07-12 17:13:00,73.3,61.0,30.10,NNW,341,6.0,-999.0,65,-99.99,,,0.00,285,weatherlink.com 1.10,2013-07-12 21:13:00,
2013-07-12 17:28:00,73.3,61.0,30.10,NNW,338,7.0,-999.0,65,-99.99,,,0.00,278,weatherlink.com 1.10,2013-07-12 21:28:00,
2013-07-12 17:43:00,73.4,61.0,30.10,NW,317,2.0,-999.0,65,-99.99,,,0.00,255,weatherlink.com 1.10,2013-07-12 21:43:00,
2013-07-12 17:58:00,73.2,60.0,30.10,North,5,8.0,-999.0,63,-99.99,,,0.00,199,weatherlink.com 1.10,2013-07-12 21:58:00,
2013-07-12 18:13:00,72.7,60.0,30.10,NNW,348,5.0,-999.0,64,-99.99,,,0.00,185,weatherlink.com 1.10,2013-07-12 22:13:00,
2013-07-12 18:29:00,72.2,60.0,30.10,NNW,327,2.0,-999.0,66,-99.99,,,0.00,135,weatherlink.com 1.10,2013-07-12 22:29:00,
2013-07-12 18:58:00,71.6,60.0,30.10,NW,324,0.0,-999.0,68,-99.99,,,0.00,104,weatherlink.com 1.10,2013-07-12 22:58:00,
2013-07-12 19:13:00,71.3,61.0,30.10,NW,325,0.0,-999.0,69,-99.99,,,0.00,81,weatherlink.com 1.10,2013-07-12 23:13:00,
2013-07-12 19:28:00,71.1,61.0,30.10,NW,325,4.0,-999.0,70,-99.99,,,0.00,65,weatherlink.com 1.10,2013-07-12 23:28:00,
2013-07-12 19:43:00,70.8,61.0,30.11,NW,325,0.0,-999.0,71,-99.99,,,0.00,46,weatherlink.com 1.10,2013-07-12 23:43:00,
2013-07-12 19:58:00,70.4,61.0,30.11,NW,325,0.0,-999.0,71,-99.99,,,0.00,35,weatherlink.com 1.10,2013-07-12 23:58:00,
2013-07-12 20:13:00,70.3,61.0,30.11,NW,325,0.0,-999.0,73,-99.99,,,0.00,19,weatherlink.com 1.10,2013-07-13 00:13:00,
2013-07-12 20:28:00,69.9,62.0,30.11,NW,325,0.0,-999.0,75,-99.99,,,0.00,7,weatherlink.com 1.10,2013-07-13 00:28:00,
2013-07-12 20:43:00,69.4,62.0,30.11,NW,325,0.0,-999.0,77,-99.99,,,0.00,0,weatherlink.com 1.10,2013-07-13 00:43:00,
2013-07-12 20:58:00,68.8,62.0,30.11,NW,325,0.0,-999.0,78,-99.99,,,0.00,0,weatherlink.com 1.10,2013-07-13 00:58:00,
2013-07-12 21:13:00,68.2,62.0,30.12,NW,325,0.0,-999.0,80,-99.99,,,0.00,0,weatherlink.com 1.10,2013-07-13 01:13:00,
2013-07-12 21:28:00,67.7,61.0,30.12,NW,325,0.0,-999.0,80,-99.99,,,0.00,0,weatherlink.com 1.10,2013-07-13 01:28:00,
2013-07-12 21:43:00,67.2,62.0,30.13,NW,325,0.0,-999.0,82,-99.99,,,0.00,0,weatherlink.com 1.10,2013-07-13 01:43:00,
2013-07-12 21:58:00,66.7,61.0,30.14,NW,325,0.0,-999.0,83,-99.99,,,0.00,0,weatherlink.com 1.10,2013-07-13 01:58:00,
2013-07-12 22:13:00,66.3,61.0,30.14,NW,325,0.0,-999.0,84,-99.99,,,0.00,0,weatherlink.com 1.10,2013-07-13 02:13:00,
2013-07-12 22:28:00,65.9,61.0,30.14,NW,325,0.0,-999.0,85,-99.99,,,0.00,0,weatherlink.com 1.10,2013-07-13 02:28:00,
2013-07-12 23:13:00,65.4,62.0,30.14,NW,325,0.0,-999.0,88,-99.99,,,0.00,0,weatherlink.com 1.10,2013-07-13 03:13:00,
2013-07-12 23:28:00,65.3,62.0,30.15,NW,325,0.0,-999.0,88,-99.99,,,0.00,0,weatherlink.com 1.10,2013-07-13 03:28:00,
2013-07-12 23:58:00,65.1,62.0,30.15,NW,325,0.0,-999.0,89,-99.99,,,0.00,0,weatherlink.com 1.10,2013-07-13 03:58:00,